Location: Blangy-Tronville
(49.8790°N, 2.4226°E)
Time: 21:07:47
(UTC+00:00)

Timation 2 Rocket - Pass Details

Date: 18 November 2025
Orbit: 904 x 1074 km, 70.0° (Epoch: 10 December)

Event Time Altitude Azimuth Distance (km) Brightness Sun altitude
Rises 17:21:47 0° 202° (SSW) 3,844 7.7 -12.6°
Reaches altitude 10° 17:24:23 10° 201° (SSW) 2,900 7.0 -13.0°
Maximum altitude 17:31:14 76° 117° (ESE) 1,107 4.2 -14.0°
Drops below altitude 10° 17:38:04 10° 33° (NNE) 2,893 6.1 -15.1°
Enters shadow 17:38:22 - 33° (NNE) 3,002 6.1 -15.2°
